![]() |
EMODnet Physics ERDDAP
Easier access to scientific data |
log in|
Brought to you by EMODnet Physics |
| Dataset Title: | NDBC - Collection of dew point temperature (DEWT) TimeSeries - IN SITU MultiPointTimeSeriesObservation
|
| Institution: | NDBC (Dataset ID: TS_DEWT_NDBC) |
| Information: | Summary
| License
| FGDC
| ISO 19115
| Metadata
| Background
| Subset
| Data Access Form
| Make a graph
|
| Name | Last modified | Size | Description | |
|---|---|---|---|---|
| Parent Directory | - | - | ||
| LDTM4_TS_DEWT_012015.nc | 21-Dec-2024 07:58 | 429913 | ||
| LDTM4_TS_DEWT_012016.nc | 21-Dec-2024 08:04 | 429665 | ||
| LDTM4_TS_DEWT_012017.nc | 21-Dec-2024 08:09 | 429673 | ||
| LDTM4_TS_DEWT_012018.nc | 21-Dec-2024 08:15 | 429676 | ||
| LDTM4_TS_DEWT_012019.nc | 21-Dec-2024 08:20 | 429667 | ||
| LDTM4_TS_DEWT_012020.nc | 21-Dec-2024 08:26 | 429686 | ||
| LDTM4_TS_DEWT_012021.nc | 21-Dec-2024 08:31 | 429690 | ||
| LDTM4_TS_DEWT_012022.nc | 21-Dec-2024 08:36 | 429691 | ||
| LDTM4_TS_DEWT_012023.nc | 21-Dec-2024 08:42 | 429645 | ||
| LDTM4_TS_DEWT_012025.nc | 07-Feb-2025 13:31 | 429677 | ||
| LDTM4_TS_DEWT_012026.nc | 02-Feb-2026 20:44 | 429695 | ||
| LDTM4_TS_DEWT_022015.nc | 21-Dec-2024 07:59 | 429684 | ||
| LDTM4_TS_DEWT_022016.nc | 21-Dec-2024 08:04 | 429626 | ||
| LDTM4_TS_DEWT_022017.nc | 21-Dec-2024 08:10 | 429692 | ||
| LDTM4_TS_DEWT_022018.nc | 21-Dec-2024 08:15 | 429688 | ||
| LDTM4_TS_DEWT_022019.nc | 21-Dec-2024 08:21 | 429685 | ||
| LDTM4_TS_DEWT_022020.nc | 21-Dec-2024 08:26 | 429696 | ||
| LDTM4_TS_DEWT_022021.nc | 21-Dec-2024 08:31 | 429690 | ||
| LDTM4_TS_DEWT_022022.nc | 21-Dec-2024 08:37 | 429687 | ||
| LDTM4_TS_DEWT_022023.nc | 21-Dec-2024 08:42 | 429692 | ||
| LDTM4_TS_DEWT_022025.nc | 01-Mar-2025 08:55 | 429696 | ||
| LDTM4_TS_DEWT_022026.nc | 01-Mar-2026 12:50 | 419518 | ||
| LDTM4_TS_DEWT_032014.nc | 21-Dec-2024 07:53 | 429908 | ||
| LDTM4_TS_DEWT_032015.nc | 21-Dec-2024 07:59 | 429910 | ||
| LDTM4_TS_DEWT_032016.nc | 21-Dec-2024 08:05 | 429857 | ||
| LDTM4_TS_DEWT_032017.nc | 21-Dec-2024 08:10 | 429909 | ||
| LDTM4_TS_DEWT_032018.nc | 21-Dec-2024 08:16 | 429912 | ||
| LDTM4_TS_DEWT_032019.nc | 21-Dec-2024 08:21 | 429904 | ||
| LDTM4_TS_DEWT_032020.nc | 21-Dec-2024 08:27 | 429911 | ||
| LDTM4_TS_DEWT_032021.nc | 21-Dec-2024 08:32 | 429908 | ||
| LDTM4_TS_DEWT_032022.nc | 21-Dec-2024 08:37 | 429904 | ||
| LDTM4_TS_DEWT_032023.nc | 21-Dec-2024 08:43 | 421853 | ||
| LDTM4_TS_DEWT_032025.nc | 02-Apr-2025 06:50 | 429908 | ||
| LDTM4_TS_DEWT_032026.nc | 25-Mar-2026 16:40 | 429907 | ||
| LDTM4_TS_DEWT_042014.nc | 21-Dec-2024 07:54 | 429912 | ||
| LDTM4_TS_DEWT_042015.nc | 21-Dec-2024 08:00 | 418871 | ||
| LDTM4_TS_DEWT_042016.nc | 21-Dec-2024 08:05 | 429909 | ||
| LDTM4_TS_DEWT_042017.nc | 21-Dec-2024 08:11 | 429894 | ||
| LDTM4_TS_DEWT_042018.nc | 21-Dec-2024 08:16 | 429906 | ||
| LDTM4_TS_DEWT_042019.nc | 21-Dec-2024 08:22 | 426423 | ||
| LDTM4_TS_DEWT_042020.nc | 21-Dec-2024 08:27 | 429332 | ||
| LDTM4_TS_DEWT_042021.nc | 21-Dec-2024 08:32 | 429350 | ||
| LDTM4_TS_DEWT_042022.nc | 21-Dec-2024 08:38 | 429327 | ||
| LDTM4_TS_DEWT_042023.nc | 21-Dec-2024 08:43 | 428852 | ||
| LDTM4_TS_DEWT_042025.nc | 01-May-2025 07:02 | 429369 | ||
| LDTM4_TS_DEWT_052014.nc | 21-Dec-2024 07:54 | 429357 | ||
| LDTM4_TS_DEWT_052015.nc | 21-Dec-2024 08:00 | 429362 | ||
| LDTM4_TS_DEWT_052016.nc | 21-Dec-2024 08:06 | 429363 | ||
| LDTM4_TS_DEWT_052017.nc | 21-Dec-2024 08:11 | 429357 | ||
| LDTM4_TS_DEWT_052018.nc | 21-Dec-2024 08:17 | 429341 | ||
| LDTM4_TS_DEWT_052019.nc | 21-Dec-2024 08:22 | 429368 | ||
| LDTM4_TS_DEWT_052020.nc | 21-Dec-2024 08:28 | 422802 | ||
| LDTM4_TS_DEWT_052021.nc | 21-Dec-2024 08:33 | 429362 | ||
| LDTM4_TS_DEWT_052022.nc | 21-Dec-2024 08:38 | 429363 | ||
| LDTM4_TS_DEWT_052023.nc | 21-Dec-2024 08:44 | 429368 | ||
| LDTM4_TS_DEWT_052025.nc | 01-Jun-2025 07:51 | 429357 | ||
| LDTM4_TS_DEWT_062014.nc | 21-Dec-2024 07:55 | 429369 | ||
| LDTM4_TS_DEWT_062015.nc | 21-Dec-2024 08:01 | 429367 | ||
| LDTM4_TS_DEWT_062016.nc | 21-Dec-2024 08:06 | 429359 | ||
| LDTM4_TS_DEWT_062017.nc | 21-Dec-2024 08:12 | 429363 | ||
| LDTM4_TS_DEWT_062018.nc | 21-Dec-2024 08:17 | 421063 | ||
| LDTM4_TS_DEWT_062019.nc | 21-Dec-2024 08:23 | 429553 | ||
| LDTM4_TS_DEWT_062020.nc | 21-Dec-2024 08:28 | 429570 | ||
| LDTM4_TS_DEWT_062021.nc | 21-Dec-2024 08:33 | 429570 | ||
| LDTM4_TS_DEWT_062022.nc | 21-Dec-2024 08:39 | 429569 | ||
| LDTM4_TS_DEWT_062023.nc | 21-Dec-2024 08:44 | 429566 | ||
| LDTM4_TS_DEWT_062025.nc | 17-Jun-2025 06:11 | 429551 | ||
| LDTM4_TS_DEWT_072014.nc | 21-Dec-2024 07:55 | 429494 | ||
| LDTM4_TS_DEWT_072015.nc | 21-Dec-2024 08:01 | 429568 | ||
| LDTM4_TS_DEWT_072016.nc | 21-Dec-2024 08:07 | 429569 | ||
| LDTM4_TS_DEWT_072017.nc | 21-Dec-2024 08:12 | 429566 | ||
| LDTM4_TS_DEWT_072018.nc | 21-Dec-2024 08:18 | 429569 | ||
| LDTM4_TS_DEWT_072019.nc | 21-Dec-2024 08:23 | 429569 | ||
| LDTM4_TS_DEWT_072020.nc | 21-Dec-2024 08:28 | 429567 | ||
| LDTM4_TS_DEWT_072021.nc | 21-Dec-2024 08:34 | 429572 | ||
| LDTM4_TS_DEWT_072022.nc | 21-Dec-2024 08:39 | 429567 | ||
| LDTM4_TS_DEWT_072023.nc | 21-Dec-2024 08:45 | 424598 | ||
| LDTM4_TS_DEWT_072025.nc | 16-Aug-2025 06:12 | 429565 | ||
| LDTM4_TS_DEWT_082014.nc | 21-Dec-2024 07:56 | 429572 | ||
| LDTM4_TS_DEWT_082015.nc | 21-Dec-2024 08:02 | 429682 | ||
| LDTM4_TS_DEWT_082016.nc | 21-Dec-2024 08:07 | 429677 | ||
| LDTM4_TS_DEWT_082017.nc | 21-Dec-2024 08:12 | 429682 | ||
| LDTM4_TS_DEWT_082018.nc | 21-Dec-2024 08:18 | 429680 | ||
| LDTM4_TS_DEWT_082019.nc | 21-Dec-2024 08:24 | 429690 | ||
| LDTM4_TS_DEWT_082020.nc | 21-Dec-2024 08:29 | 429691 | ||
| LDTM4_TS_DEWT_082021.nc | 21-Dec-2024 08:34 | 429698 | ||
| LDTM4_TS_DEWT_082022.nc | 21-Dec-2024 08:40 | 429249 | ||
| LDTM4_TS_DEWT_082023.nc | 21-Dec-2024 08:45 | 429686 | ||
| LDTM4_TS_DEWT_082025.nc | 01-Sep-2025 06:44 | 429691 | ||
| LDTM4_TS_DEWT_092014.nc | 21-Dec-2024 07:56 | 429685 | ||
| LDTM4_TS_DEWT_092015.nc | 21-Dec-2024 08:02 | 429683 | ||
| LDTM4_TS_DEWT_092016.nc | 21-Dec-2024 08:08 | 429694 | ||
| LDTM4_TS_DEWT_092017.nc | 21-Dec-2024 08:13 | 429684 | ||
| LDTM4_TS_DEWT_092018.nc | 21-Dec-2024 08:19 | 429685 | ||
| LDTM4_TS_DEWT_092019.nc | 21-Dec-2024 08:24 | 429689 | ||
| LDTM4_TS_DEWT_092020.nc | 21-Dec-2024 08:29 | 429695 | ||
| LDTM4_TS_DEWT_092021.nc | 21-Dec-2024 08:35 | 429685 | ||
| LDTM4_TS_DEWT_092022.nc | 21-Dec-2024 08:40 | 429696 | ||
| LDTM4_TS_DEWT_092023.nc | 21-Dec-2024 08:46 | 429698 | ||
| LDTM4_TS_DEWT_092025.nc | 01-Oct-2025 06:40 | 429689 | ||
| LDTM4_TS_DEWT_102014.nc | 21-Dec-2024 07:57 | 429906 | ||
| LDTM4_TS_DEWT_102015.nc | 21-Dec-2024 08:02 | 429900 | ||
| LDTM4_TS_DEWT_102016.nc | 21-Dec-2024 08:08 | 429905 | ||
| LDTM4_TS_DEWT_102017.nc | 21-Dec-2024 08:13 | 429910 | ||
| LDTM4_TS_DEWT_102018.nc | 21-Dec-2024 08:19 | 429862 | ||
| LDTM4_TS_DEWT_102019.nc | 21-Dec-2024 08:25 | 429906 | ||
| LDTM4_TS_DEWT_102020.nc | 21-Dec-2024 08:30 | 429910 | ||
| LDTM4_TS_DEWT_102021.nc | 21-Dec-2024 08:35 | 426271 | ||
| LDTM4_TS_DEWT_102022.nc | 21-Dec-2024 08:41 | 429904 | ||
| LDTM4_TS_DEWT_102023.nc | 21-Dec-2024 08:46 | 429911 | ||
| LDTM4_TS_DEWT_102025.nc | 01-Nov-2025 04:42 | 429911 | ||
| LDTM4_TS_DEWT_112014.nc | 21-Dec-2024 07:57 | 429907 | ||
| LDTM4_TS_DEWT_112015.nc | 21-Dec-2024 08:03 | 429914 | ||
| LDTM4_TS_DEWT_112016.nc | 21-Dec-2024 08:08 | 429906 | ||
| LDTM4_TS_DEWT_112017.nc | 21-Dec-2024 08:14 | 429909 | ||
| LDTM4_TS_DEWT_112018.nc | 21-Dec-2024 08:19 | 429907 | ||
| LDTM4_TS_DEWT_112019.nc | 21-Dec-2024 08:25 | 429891 | ||
| LDTM4_TS_DEWT_112020.nc | 21-Dec-2024 08:30 | 429912 | ||
| LDTM4_TS_DEWT_112021.nc | 21-Dec-2024 08:35 | 429909 | ||
| LDTM4_TS_DEWT_112022.nc | 21-Dec-2024 08:41 | 429343 | ||
| LDTM4_TS_DEWT_112023.nc | 21-Dec-2024 08:47 | 429352 | ||
| LDTM4_TS_DEWT_112024.nc | 17-Jan-2025 17:19 | 429345 | ||
| LDTM4_TS_DEWT_112025.nc | 01-Dec-2025 07:55 | 429349 | ||
| LDTM4_TS_DEWT_122014.nc | 21-Dec-2024 07:58 | 429367 | ||
| LDTM4_TS_DEWT_122015.nc | 21-Dec-2024 08:03 | 429361 | ||
| LDTM4_TS_DEWT_122016.nc | 21-Dec-2024 08:09 | 429361 | ||
| LDTM4_TS_DEWT_122017.nc | 21-Dec-2024 08:14 | 425479 | ||
| LDTM4_TS_DEWT_122018.nc | 21-Dec-2024 08:20 | 429366 | ||
| LDTM4_TS_DEWT_122019.nc | 21-Dec-2024 08:25 | 429363 | ||
| LDTM4_TS_DEWT_122020.nc | 21-Dec-2024 08:30 | 429336 | ||
| LDTM4_TS_DEWT_122021.nc | 21-Dec-2024 08:36 | 429363 | ||
| LDTM4_TS_DEWT_122022.nc | 21-Dec-2024 08:41 | 429338 | ||
| LDTM4_TS_DEWT_122023.nc | 21-Dec-2024 08:47 | 429369 | ||
| LDTM4_TS_DEWT_122024.nc | 22-Jan-2025 18:11 | 429362 | ||
| LDTM4_TS_DEWT_122025.nc | 01-Jan-2026 08:09 | 429357 | ||